Location: Unspecified
(0.0000°N, 0.0000°E)
Time: 18:18:26
(UTC+00:00)

STARLINK 1042 - Pass Details

Date: 19 January 2020
Orbit: 549 x 551 km, 53.0° (Epoch: 23 January)

Event Time Altitude Azimuth Distance (km) Brightness Sun altitude
Rises 04:57:28 0° 186° (S) 2,737 7.4 -17.1°
Reaches altitude 10° 05:00:25 10° 165° (SSE) 1,836 6.8 -16.4°
Maximum altitude 05:03:04 16° 125° (SE) 1,468 6.9 -15.8°
Drops below altitude 10° 05:05:42 10° 85° (E) 1,825 7.3 -15.2°
Sets 05:08:34 0° 64° (ENE) 2,700 7.8 -14.5°
